Home > Time Zones > World Clock > Weather > Russia > Ufa > Past weeks

Flag Weather past 2 weeks in Ufa, Russia

Now
0 °F

Passing clouds.


Feels Like: -12 °F
Forecast: 7 / 16 °F
Wind: 6 mph from North

Location: Ufa

Current Time: Nov 24, 2014 at 6:30:17 AM

Latest Report: Nov 24, 2014 at 5:30 AM


Visibility: N/A

Pressure: 30.66 "Hg

Humidity: 78%

Dew point: -6 °F

Location of UfaLocation

Historic Weather in Ufa — Graph

°F

Ufa temperature yesterday

Maximum temperature yesterday: 25 °F (at 1:30 PM)
Minimum temperature yesterday: 7 °F (at 11:00 PM)
Average temperature yesterday: 20 °F

Past Weeks' High & Low Weather Summary

 TemperatureHumidityPressure
High37 °F (Nov 10, 12:30 PM)100% (Nov 9, 5:00 AM)30.66 "Hg (Nov 9, 5:00 AM)
Low0 °F (Nov 24, 5:30 AM)67% (Nov 23, 9:30 PM)30.01 "Hg (Nov 23, 3:30 AM)
Average25 °F89%30.41 "Hg
* Reported Nov 9 5:00 AM — Nov 24 5:30 AM, Ufa, Weather by CustomWeather, © 2014

Note: Actual official high and low records may vary slightly from our data, if they occured in-between our weather recording intervals... More about our weather records

Advertising

Ufa weather history for previous 24 hours

 ConditionsComfort  
Time TempWeatherWind HumidityBarometerVisibility
5:30 AM
Nov 24
0 °FPassing clouds.6 mph78%30.66 "HgN/A
4:30 AM1 °FPassing clouds.3 mph71%30.63 "HgN/A
4:00 AM1 °FPassing clouds.3 mph78%30.63 "HgN/A
3:30 AM1 °FClear.8 mph78%30.63 "Hg10 mi
3:00 AM3 °FClear.10 mph72%30.63 "Hg10 mi
2:30 AM3 °FClear.10 mph72%30.60 "Hg10 mi
2:00 AM3 °FClear.13 mph72%30.60 "Hg10 mi
1:30 AM3 °FPassing clouds.15 mph72%30.57 "HgN/A
1:00 AM5 °FPassing clouds.15 mph72%30.57 "HgN/A
12:30 AM5 °FPassing clouds.13 mph72%30.54 "HgN/A
12:00 AM5 °FPassing clouds.13 mph78%30.54 "HgN/A
11:30 PM
Nov 23
7 °FPassing clouds.10 mph72%30.51 "HgN/A
11:00 PM7 °FPassing clouds.13 mph72%30.48 "HgN/A
10:30 PM9 °FPassing clouds.15 mph72%30.48 "HgN/A
10:00 PM9 °FPassing clouds.13 mph72%30.45 "HgN/A
9:30 PM10 °FPassing clouds.13 mph67%30.45 "HgN/A
9:00 PM10 °FPassing clouds.13 mph72%30.42 "HgN/A
8:30 PM12 °FPassing clouds.13 mph73%30.42 "HgN/A
8:00 PM12 °FPartly cloudy.13 mph73%30.39 "HgN/A
7:30 PM14 °FPartly cloudy.15 mph79%30.36 "HgN/A
7:00 PM16 °FMostly cloudy.15 mph79%30.33 "HgN/A
6:30 PM19 °FMostly cloudy.15 mph73%30.27 "HgN/A
6:00 PM21 °FSnow flurries. Overcast.15 mph80%30.24 "HgN/A
5:30 PM25 °FLight snow. Overcast.10 mph80%30.21 "Hg3 mi
5:00 PM25 °FLight snow. Overcast.10 mph80%30.21 "HgN/A
4:30 PM25 °FLight snow. Overcast.8 mph80%30.18 "HgN/A
4:00 PM25 °FLight snow. Overcast.8 mph86%30.18 "HgN/A
3:30 PM25 °FLight snow. Overcast.10 mph86%30.15 "HgN/A
3:00 PM25 °FLight snow. More clouds than sun.10 mph86%30.15 "Hg2 mi
2:30 PM25 °FLight snow. More clouds than sun.10 mph80%30.12 "HgN/A
2:00 PM25 °FLight snow. More clouds than sun.13 mph80%30.12 "HgN/A
1:30 PM25 °FLight snow. More clouds than sun.13 mph80%30.12 "HgN/A
1:00 PM23 °FLight snow. More clouds than sun.10 mph86%30.09 "HgN/A
12:30 PM23 °FLight snow. More clouds than sun.10 mph86%30.09 "HgN/A
12:00 PM23 °FLight snow. More clouds than sun.10 mph86%30.09 "HgN/A
11:30 AM23 °FLight snow. More clouds than sun.8 mph86%30.07 "Hg2 mi
11:00 AM23 °FLight snow. More clouds than sun.8 mph86%30.07 "Hg2 mi
10:30 AM23 °FLight snow. More clouds than sun.8 mph86%30.07 "Hg2 mi
10:00 AM21 °FLight snow. Overcast.10 mph93%30.04 "Hg2 mi
9:30 AM21 °FLight snow. Overcast.8 mph93%30.04 "Hg2 mi
9:00 AM21 °FLight snow. Overcast.6 mph93%30.04 "Hg2 mi
8:30 AM21 °FMixture of precip. Overcast.8 mph93%30.04 "Hg3 mi
8:00 AM21 °FLight snow. Ice fog.10 mph93%30.01 "Hg3 mi
7:30 AM21 °FLight snow. Ice fog.3 mph100%30.01 "Hg3 mi
7:00 AM21 °FLight snow. Ice fog.3 mph93%30.01 "Hg3 mi
6:30 AM21 °FLight snow. Ice fog.3 mph93%30.01 "Hg3 mi
6:00 AM21 °FLight snow. Ice fog.3 mph93%30.01 "Hg3 mi
Weather by CustomWeather, © 2014

See weather overviewHow to use our weather pages